Flag for U.S.A. Weather past 2 weeks in Narragansett, Rhode Island, U.S.A.

Now
57 °F

Clear.


Feels Like: 56 °F
Forecast: 52 / 68 °F
Wind: 6 mph from East

Location: Newport State Airport

Current Time: Sep 14, 2014 at 10:13:18 PM

Latest Report: Sep 14, 2014 at 9:53 PM


Visibility: 10 mi

Pressure: 30.18 "Hg

Humidity: 87%

Dew point: 53 °F

Location of NarragansettLocation

Historic Weather in Narragansett — Graph

°F

Narragansett temperature yesterday

Maximum temperature yesterday: 71 °F (at 12:53 PM)
Minimum temperature yesterday: 53 °F (at 4:53 AM)
Average temperature yesterday: 62 °F

Past Weeks' High & Low Weather Summary

 TemperatureHumidityPressure
High83 °F (Sep 2, 10:53 AM)97% (Sep 6, 7:00 AM)30.35 "Hg (Sep 6, 7:00 AM)
Low53 °F (Sep 13, 4:53 AM)37% (Sep 4, 2:53 PM)29.73 "Hg (Sep 3, 1:53 AM)
Average70 °F76%30.07 "Hg
* Reported Aug 30 8:53 PM — Sep 14 8:53 PM, Narragansett, Weather by CustomWeather, © 2014

Note: Actual official high and low records may vary slightly from our data, if they occured in-between our weather recording intervals... More about our weather records

Advertising

Narragansett weather history for previous 24 hours

 ConditionsComfort  
Time TempWeatherWind HumidityBarometerVisibility
8:53 PM
Sep 14
58 °FClear.No wind78%30.19 "Hg10 mi
7:53 PM59 °FSunny.No wind75%30.19 "Hg10 mi
6:53 PM62 °FSunny.3 mph67%30.18 "Hg10 mi
5:53 PM64 °FSunny.5 mph61%30.17 "Hg10 mi
4:53 PM65 °FSunny.7 mph59%30.17 "Hg10 mi
3:53 PM68 °FSunny.No wind45%30.16 "Hg10 mi
2:53 PM68 °FSunny.6 mph44%30.17 "Hg10 mi
1:53 PM66 °FSunny.8 mph49%30.18 "Hg10 mi
12:53 PM65 °FSunny.7 mph49%30.19 "Hg10 mi
11:53 AM62 °FSunny.9 mph56%30.19 "Hg10 mi
10:53 AM61 °FSunny.10 mph60%30.21 "Hg10 mi
9:53 AM59 °FSunny.15 mph62%30.21 "Hg10 mi
8:53 AM57 °FSunny.16 mph67%30.20 "Hg10 mi
7:53 AM56 °FSunny.16 mph70%30.21 "Hg10 mi
6:53 AM54 °FClear.10 mph77%30.19 "Hg10 mi
5:53 AM54 °FClear.8 mph80%30.16 "Hg10 mi
4:53 AM55 °FClear.9 mph77%30.14 "Hg10 mi
3:53 AM57 °FClear.12 mph78%30.12 "Hg10 mi
2:53 AM59 °FClear.9 mph84%30.11 "Hg10 mi
1:53 AM60 °FOvercast.8 mph86%30.11 "Hg10 mi
12:53 AM61 °FLow clouds.7 mph90%30.10 "Hg10 mi
11:53 PM
Sep 13
62 °FLow clouds.7 mph90%30.10 "Hg10 mi
10:53 PM62 °FMostly cloudy.5 mph86%30.10 "Hg10 mi
Weather by CustomWeather, © 2014

See weather overviewHow to use our weather pages